GFSSE_925_thetae_276.txt.gz
Theta_e
341 325 323 327 335 344 345 339 327 331 336 338 337 339 340 341 342 341 339 337 337 337 336 336 335 334 334 333 332 332 332 332 332 331 331 330 333 340 337 332 337 348 345
341 325 324 327 333 340 344 338 329 332 336 338 339 341 341 342 341 340 338 335 336 336 335 335 334 333 333 333 334 334 334 333 333 332 331 331 335 343 342 339 330 340 344
343 329 327 327 330 337 341 339 335 336 338 340 342 342 341 340 339 337 336 334 335 334 333 333 333 334 337 339 339 339 339 339 339 339 338 336 344 347 343 340 338 335 332
345 339 328 327 329 333 339 340 339 340 340 342 342 341 339 337 336 336 334 334 334 333 333 336 339 340 338 336 336 336 337 337 335 333 331 345 349 349 342 342 344 341 344
348 345 331 326 327 330 336 340 341 340 340 341 340 339 335 334 334 334 334 333 333 338 340 340 340 338 334 331 330 331 330 325 321 319 330 334 348 348 344 344 337 334 337
348 354 330 327 327 328 332 336 337 338 338 337 335 333 333 333 333 333 333 337 343 342 339 337 336 331 328 323 324 324 322 320 318 326 327 328 326 331 334 335 332 324 316
350 353 339 333 328 328 329 330 331 332 332 332 333 332 332 331 332 332 339 344 339 336 332 330 325 323 321 321 319 319 320 321 322 327 327 327 328 327 326 325 323 322 316
352 349 341 338 332 330 329 329 330 330 331 332 332 331 331 332 333 338 342 337 332 325 322 321 320 320 320 320 320 321 321 322 323 325 325 326 328 328 326 324 324 323 322
345 348 347 340 335 333 332 333 334 335 333 332 332 333 335 337 337 344 337 328 323 321 321 322 324 325 326 326 326 325 325 325 326 328 329 328 329 329 326 325 325 325 325
343 346 344 344 344 337 335 335 334 332 332 336 336 336 338 340 339 325 320 327 323 323 324 326 326 327 331 332 332 331 329 327 327 331 331 330 330 327 327 327 327 327 327
339 341 342 343 343 342 342 333 331 334 336 332 329 324 327 336 332 338 332 329 327 327 333 333 332 332 333 333 334 335 335 333 331 332 332 331 331 330 329 328 328 328 328
338 339 339 340 340 340 341 339 341 340 329 329 330 325 330 335 331 329 328 331 331 333 333 335 334 333 334 335 333 333 334 334 334 333 332 331 331 331 330 331 330 330 331
335 337 339 340 336 338 342 338 341 338 333 333 334 333 336 335 335 334 335 336 335 334 334 333 332 332 332 331 332 332 332 331 331 330 329 328 326 324 323 323 324 327 329
334 334 338 338 335 339 338 335 336 333 332 333 335 334 336 335 337 337 335 335 333 333 332 332 331 331 330 329 328 327 325 323 322 321 321 320 320 319 318 320 320 321 321
332 332 335 338 338 341 337 334 333 332 331 335 336 336 335 336 335 334 335 333 332 332 332 331 329 327 324 323 321 320 320 319 318 318 318 319 319 319 319 321 321 322 323
333 331 335 339 340 342 340 337 336 335 336 335 337 336 335 334 334 332 332 332 332 331 329 326 322 320 320 320 319 318 318 319 319 319 319 319 319 319 319 321 322 322 323
334 331 334 341 343 342 342 342 339 338 338 336 337 335 333 332 331 330 331 330 328 326 322 319 319 318 319 319 318 319 318 319 319 319 318 318 319 320 320 321 321 321 322
339 332 334 336 343 342 342 342 340 338 336 337 335 334 331 330 328 327 327 324 323 320 319 319 319 319 318 318 318 317 317 316 316 318 318 318 319 318 318 318 318 319 319
339 341 336 335 342 342 342 342 341 339 337 334 333 332 329 329 325 323 323 321 319 318 318 318 318 318 316 316 315 315 314 315 316 316 317 318 317 316 317 317 317 317 317
339 345 347 344 339 343 343 343 341 338 335 333 331 329 326 325 322 320 318 318 317 318 318 317 316 314 313 313 314 314 314 313 315 315 315 314 314 316 315 315 315 315 316
351 351 353 354 348 347 346 345 340 337 334 332 329 327 325 321 318 318 318 317 318 317 315 316 314 312 312 313 314 313 312 313 313 312 312 313 313 315 314 314 314 314 314
354 354 353 352 352 349 345 342 340 338 336 332 330 326 323 320 317 317 317 317 316 315 315 314 313 313 313 312 313 312 312 311 312 310 311 311 313 311 313 313 313 313 313
344 345 344 344 345 342 342 341 338 336 334 332 329 324 321 318 315 316 316 316 315 315 314 314 314 314 313 312 312 311 313 313 310 310 309 311 310 311 311 312 312 313 314
341 341 340 338 338 338 339 338 338 336 333 329 324 321 318 316 317 316 315 315 315 314 314 314 315 314 313 313 311 312 311 310 311 310 309 309 310 310 310 310 313 314 314
337 335 335 333 333 333 332 333 332 331 326 323 320 318 318 318 317 316 315 314 314 313 312 314 314 314 313 313 312 313 312 311 310 309 310 309 309 310 310 311 312 314 315
333 332 331 330 329 328 326 326 324 323 321 318 317 318 316 314 313 314 315 313 314 311 312 312 313 313 313 313 314 313 313 312 311 310 310 310 310 310 310 311 311 315 315

GFSSE_925_thetae_279.txt.gz
Theta_e
332 326 328 338 344 343 337 327 331 335 335 336 337 338 339 339 338 336 335 335 336 336 336 335 333 332 332 332 332 333 333 333 332 331 331 333 333 339 339 334 342 346 347
324 325 327 335 344 343 338 328 331 336 337 338 339 339 339 339 338 337 335 336 336 335 334 333 333 333 335 338 339 338 338 338 338 338 339 339 336 338 342 340 334 337 331
324 325 327 331 338 342 339 330 332 336 338 339 340 339 338 338 337 337 335 336 335 334 334 334 337 340 339 336 335 335 334 334 332 330 327 326 344 348 347 343 339 341 339
324 324 326 329 334 340 339 335 335 337 339 340 341 340 339 338 337 336 334 334 334 335 339 340 340 337 334 330 326 325 324 321 319 318 324 328 328 347 347 343 343 340 335
331 326 326 328 332 337 339 338 339 339 339 341 341 340 337 335 334 333 333 333 339 341 340 338 336 331 327 320 320 319 319 319 320 321 321 326 327 344 344 340 339 333 327
343 328 326 327 330 333 337 339 340 339 339 340 339 334 333 333 332 332 333 342 342 339 334 330 325 321 319 319 319 319 320 321 321 322 323 322 325 339 341 339 334 328 323
349 331 327 327 328 329 332 334 336 337 336 334 333 332 331 330 331 332 341 342 335 326 323 321 320 319 320 321 322 322 322 322 322 326 328 328 327 326 333 333 329 324 322
349 335 333 329 328 328 329 330 331 331 331 331 330 330 330 331 332 338 341 333 323 320 320 320 322 323 325 327 329 329 327 326 325 327 330 330 329 327 328 328 325 324 323
346 338 336 333 330 329 329 329 330 331 331 330 330 331 333 335 336 342 331 319 319 321 323 325 325 326 330 332 332 332 333 333 331 329 331 330 331 331 329 328 324 323 325
344 333 334 334 332 331 332 332 332 330 329 331 334 335 337 335 337 333 319 329 326 324 332 331 331 332 332 333 333 335 335 334 335 334 333 333 332 330 331 324 325 326 327
346 340 332 335 333 331 331 330 329 329 334 332 329 326 326 327 329 324 330 329 328 329 332 332 333 333 334 334 333 332 332 333 332 333 333 332 333 330 330 330 331 331 330
344 343 340 339 335 339 336 329 330 333 327 325 321 325 329 335 339 335 329 328 328 334 333 333 333 333 333 331 331 331 331 330 329 329 327 327 328 327 326 326 325 328 332
341 342 341 340 340 341 341 332 330 326 330 331 330 335 336 334 336 336 335 335 334 334 333 333 332 332 331 330 329 326 325 323 321 320 320 319 319 318 322 324 323 323 324
339 340 341 339 340 341 341 336 337 333 332 334 333 332 335 332 338 335 335 334 332 333 332 332 331 330 325 322 320 320 320 319 318 318 318 318 319 320 322 321 321 322 322
336 339 340 339 340 340 336 339 339 335 333 333 333 333 334 335 336 335 333 332 332 332 331 330 325 320 319 319 320 319 318 318 318 318 319 319 319 318 320 321 323 326 326
333 338 338 336 339 337 337 336 336 332 333 335 335 336 333 333 334 330 331 331 331 329 328 321 319 318 319 319 318 318 318 318 318 317 317 317 319 320 322 323 323 322 322
331 336 337 336 335 339 338 335 335 337 336 338 337 335 333 330 329 328 329 326 325 324 319 319 318 319 318 317 317 315 316 315 314 316 316 316 318 319 319 319 320 320 321
331 336 338 338 335 336 339 338 338 339 338 337 335 333 330 327 326 326 324 321 321 319 319 318 317 317 316 314 313 314 314 313 314 314 316 316 315 315 316 317 318 319 319
341 339 339 339 339 338 339 339 340 338 335 334 332 330 329 329 327 325 321 319 318 317 317 317 317 315 313 312 313 314 314 312 312 314 313 313 313 314 314 314 315 316 316
341 346 340 342 341 342 341 342 339 336 333 331 330 329 330 328 325 322 318 317 318 317 315 316 314 312 312 313 312 314 312 312 312 313 311 311 312 313 312 313 313 313 315
340 344 351 343 344 342 344 341 337 335 333 332 330 329 330 326 322 317 317 317 317 314 316 314 313 312 312 312 312 312 311 311 311 311 311 311 312 311 310 310 311 312 312
334 343 347 348 346 346 345 341 337 335 335 331 329 329 326 323 320 315 316 317 315 315 315 313 314 314 313 312 312 311 311 311 312 311 310 310 310 310 310 310 311 311 312
336 343 342 341 342 343 342 340 338 336 332 330 327 326 323 319 315 316 316 315 315 314 313 313 314 314 314 312 312 311 313 313 311 310 310 309 309 310 310 311 311 311 312
335 339 338 339 338 338 339 339 336 334 333 327 323 321 318 317 317 316 315 315 314 313 312 312 314 314 315 313 313 312 312 312 312 312 310 310 310 310 310 311 311 311 313
336 334 333 333 333 333 335 334 332 325 324 321 319 318 317 316 318 316 315 314 314 313 311 312 312 312 313 314 314 313 313 313 312 310 311 310 311 310 311 311 311 311 311
332 330 329 329 327 328 329 327 326 323 319 318 315 314 312 313 314 313 312 312 313 312 311 311 312 312 312 311 312 311 312 313 312 312 311 311 311 310 311 311 311 311 311

GFSSE_925_thetae_285.txt.gz
Theta_e
335 344 352 335 328 329 330 333 334 334 334 335 335 336 335 334 333 334 334 333 332 332 332 332 334 338 338 337 335 334 334 334 333 331 330 331 333 337 337 338 334 340 342
333 341 351 338 328 330 331 332 333 334 335 336 337 336 335 334 333 334 334 333 333 333 334 338 338 335 332 326 319 318 318 318 319 319 323 326 327 328 344 340 341 336 338
333 345 346 340 329 330 332 333 333 335 336 337 337 336 335 334 333 333 332 332 334 338 339 337 333 325 318 317 319 319 319 320 320 320 321 322 323 325 330 337 346 339 339
332 344 344 342 332 329 333 335 335 337 338 337 336 335 334 333 332 332 331 335 339 338 332 325 320 318 318 319 319 320 320 320 321 321 323 325 327 327 325 340 347 345 341
337 343 344 343 335 329 332 336 337 338 339 338 337 335 333 332 331 331 335 340 337 329 322 320 319 319 319 321 322 324 325 325 325 325 326 326 327 328 328 329 345 345 342
338 341 343 343 337 331 332 336 338 338 339 338 336 333 331 331 330 331 340 338 327 321 319 319 319 321 323 327 329 330 330 331 331 331 330 330 330 329 329 327 338 344 342
335 336 339 341 339 334 335 337 338 337 338 336 333 331 330 329 329 335 338 329 320 319 320 320 321 323 327 329 330 330 331 333 334 334 333 334 334 333 332 332 329 331 338
327 330 334 337 338 337 337 338 337 335 334 332 330 329 328 328 330 337 335 323 319 320 321 323 325 326 329 329 330 331 333 334 333 333 333 333 333 332 333 332 331 332 337
328 328 329 331 334 335 336 335 334 332 331 330 329 328 328 330 332 336 330 322 321 323 325 325 326 329 329 330 333 333 333 332 331 331 330 330 331 333 331 331 334 338 341
329 329 329 329 330 331 332 331 330 329 329 328 328 329 331 333 333 332 326 324 325 324 324 324 325 327 329 334 332 331 329 328 327 325 325 327 331 331 329 328 331 331 330
331 330 329 329 329 329 329 329 329 329 328 328 330 332 333 332 330 330 328 326 327 329 332 329 328 334 332 329 327 325 323 321 319 319 319 319 321 323 324 324 322 328 328
332 331 330 329 329 328 328 329 329 329 328 330 330 329 329 329 331 332 332 333 335 335 335 333 331 329 328 325 322 320 319 319 318 318 318 318 322 323 324 324 326 326 326
336 334 332 330 329 328 328 329 328 328 329 329 326 327 328 331 335 336 336 334 336 333 331 330 329 327 324 321 319 318 318 318 317 316 316 317 322 323 324 324 324 324 323
338 335 332 331 329 328 328 328 328 328 329 324 321 326 334 334 336 335 334 333 332 330 329 328 326 322 320 318 318 317 316 315 315 315 315 316 320 321 323 323 323 324 326
342 339 333 331 330 328 328 327 327 328 326 327 327 332 336 336 335 334 333 331 329 327 326 324 322 319 318 316 315 313 312 313 314 313 313 315 319 320 322 323 324 324 325
343 340 333 331 330 329 334 332 329 325 327 330 331 332 336 334 333 331 329 326 325 324 322 320 318 316 314 313 311 312 313 313 312 311 313 312 313 317 319 319 321 322 323
343 342 339 337 336 336 339 338 331 330 330 333 334 334 333 331 329 326 326 326 324 322 319 317 315 313 312 312 312 312 312 311 311 313 311 311 312 312 313 315 317 318 319
338 341 340 340 340 339 340 340 335 339 338 336 334 332 330 329 329 329 328 326 321 318 316 314 312 312 312 311 311 311 311 311 312 310 310 311 311 311 311 311 314 315 315
334 339 339 339 340 340 340 340 338 338 337 334 332 331 329 330 330 328 325 320 317 316 313 312 312 313 312 312 312 311 311 311 311 311 310 310 310 310 310 310 311 311 313
337 337 339 340 340 339 337 336 336 336 333 331 330 329 331 330 327 324 321 317 316 313 313 312 312 313 313 313 312 312 311 311 311 311 310 309 310 310 310 310 310 311 311
343 340 341 340 338 338 338 336 336 333 330 329 329 330 329 326 325 320 316 316 314 314 312 311 312 313 312 313 313 312 311 311 311 311 311 310 309 309 309 308 310 310 310
345 344 342 341 341 339 338 335 333 330 329 330 329 329 325 321 316 315 316 315 315 314 313 311 311 312 312 312 313 311 306 310 311 311 311 310 309 309 308 306 309 309 310
344 343 343 343 341 340 338 336 332 332 329 329 328 324 320 317 316 316 316 315 314 314 313 311 310 311 311 311 312 312 312 312 310 312 311 310 310 310 308 307 306 306 306
340 343 343 341 341 340 340 338 336 335 332 328 326 320 318 317 317 316 315 314 313 313 313 311 310 310 312 311 312 312 312 311 310 311 311 310 310 310 307 307 304 304 306
339 339 341 341 341 340 340 339 337 334 327 321 317 316 314 313 316 315 314 313 311 312 310 310 310 310 310 311 312 312 311 310 310 310 310 308 309 310 307 305 304 303 304
334 336 335 336 336 335 335 333 331 327 321 318 315 312 311 311 310 311 309 308 307 307 308 308 309 309 310 309 310 309 308 309 308 307 308 308 308 309 307 304 304 303 302

GFSSE_925_thetae_291.txt.gz
Theta_e
345 351 332 330 334 337 338 335 334 334 334 333 333 334 335 335 334 333 332 331 331 332 334 337 337 336 334 330 327 325 322 320 321 324 326 325 326 327 335 339 339 346 343
346 350 333 330 334 338 337 334 333 332 332 334 334 333 332 333 332 331 331 331 332 336 339 337 332 324 321 321 321 321 321 321 321 322 323 325 326 325 325 326 337 347 343
350 350 340 331 334 338 337 335 334 334 335 334 332 332 332 332 331 330 331 334 338 338 334 326 321 320 320 321 321 322 322 323 324 324 325 328 328 327 327 327 329 336 343
351 350 344 331 333 336 336 335 335 335 335 334 333 332 331 331 330 330 335 338 336 330 325 322 321 321 322 324 326 328 329 329 330 331 334 334 334 331 330 330 329 330 344
351 350 344 330 332 334 334 334 335 335 334 333 332 331 331 330 330 333 338 336 329 324 322 321 322 323 325 327 328 329 330 332 334 337 337 336 335 333 332 332 332 331 340
350 350 336 329 332 333 334 334 335 335 335 333 332 331 331 330 331 335 337 332 326 323 322 323 324 325 326 327 329 330 332 333 335 335 335 335 334 332 332 332 332 332 331
348 350 345 330 330 334 335 335 335 336 335 334 333 330 330 330 330 336 335 329 325 323 323 324 325 326 327 328 330 332 332 332 331 331 331 331 334 330 331 332 331 331 332
342 350 350 337 330 331 334 335 336 336 335 334 333 331 330 330 330 335 335 331 326 325 325 326 325 326 327 329 332 332 330 330 327 327 326 325 327 323 330 332 330 332 335
348 350 350 347 335 330 332 335 336 334 334 334 332 330 330 329 330 333 335 331 328 328 328 328 326 326 327 331 331 330 329 329 325 324 323 322 321 319 323 329 330 329 329
346 348 349 348 344 341 341 335 335 334 334 333 331 330 329 329 331 332 333 332 331 330 330 331 331 329 329 330 330 329 328 327 323 322 322 321 318 320 325 326 327 328 326
342 344 346 347 346 345 344 341 336 335 333 332 332 330 331 338 334 334 335 332 331 331 332 332 332 331 330 329 328 327 326 322 321 321 320 318 319 323 324 325 326 326 326
338 341 343 344 345 345 344 343 344 343 341 340 337 330 338 335 333 337 336 332 334 335 333 331 330 329 328 325 323 323 320 319 319 318 317 314 319 321 323 324 326 326 326
335 338 340 341 341 343 342 343 343 341 340 338 330 330 333 334 332 333 334 333 333 332 330 329 328 327 325 322 320 319 317 317 316 316 315 313 319 321 323 324 325 325 327
336 337 338 337 332 336 341 340 339 339 338 337 332 332 332 333 332 334 331 331 330 330 328 326 323 322 321 319 316 315 315 315 315 315 315 313 317 319 321 323 324 326 327
340 338 338 336 332 336 333 338 336 334 336 336 332 332 330 330 333 332 331 330 328 325 323 323 321 319 316 314 314 314 314 314 314 314 315 313 313 317 319 319 320 321 322
346 344 340 335 333 331 331 332 337 334 335 332 332 331 330 334 333 331 329 325 325 324 323 320 316 313 315 314 314 314 313 314 314 314 314 314 311 313 315 316 318 318 319
348 347 345 339 335 331 331 331 332 333 335 333 333 329 333 333 331 328 326 327 326 321 318 315 314 315 314 314 314 314 314 313 314 313 313 312 313 312 310 313 316 316 317
348 347 346 342 339 333 332 333 333 334 333 332 332 332 332 331 327 328 326 325 321 318 314 314 315 314 314 313 313 313 314 314 313 313 312 312 312 312 312 310 312 314 315
345 346 345 345 340 338 334 333 334 337 334 332 332 331 329 328 328 327 324 321 318 315 316 315 315 314 313 313 311 311 312 312 313 313 313 313 312 311 311 310 310 310 312
334 337 342 343 341 338 335 335 335 336 334 332 330 328 327 328 328 324 321 318 316 317 316 315 315 313 313 312 311 312 312 313 312 312 313 313 312 312 311 311 310 309 309
336 334 332 338 339 338 337 336 335 333 331 329 327 327 328 329 323 319 317 317 316 317 315 314 313 313 311 311 312 311 312 312 313 312 312 311 311 312 311 311 311 309 308
342 340 337 338 338 338 338 336 335 332 330 330 328 329 327 322 320 317 317 317 317 316 315 314 313 311 311 311 311 311 313 312 313 310 311 309 311 311 309 310 310 309 307
343 341 340 338 337 337 337 335 332 330 329 329 328 324 323 320 318 317 316 316 315 314 315 313 312 312 310 311 311 311 313 313 311 311 309 310 309 308 309 308 309 309 307
339 339 339 338 336 335 334 334 333 335 334 330 326 323 320 317 316 316 315 314 314 312 312 310 310 311 311 310 310 310 310 311 312 310 308 308 307 307 307 307 309 309 307
338 340 339 338 337 334 334 335 335 333 330 328 322 318 315 314 313 312 310 308 308 308 309 310 310 310 310 310 310 310 309 309 308 310 311 307 306 306 306 307 308 308 306
337 337 337 336 334 335 335 334 334 334 324 320 317 315 313 311 309 306 306 307 308 309 310 310 309 310 310 308 307 306 306 306 306 306 307 305 305 305 306 306 306 307 305